Year,Month,Day,Hour,Minute,Value (Times are PST for temperature in C)
2015,07,09,00,00,19.20
2015,07,09,00,01,19.20
2015,07,09,00,02,19.20
2015,07,09,00,03,19.20
2015,07,09,00,04,19.10
2015,07,09,00,05,19.10
2015,07,09,00,06,19.10
2015,07,09,00,07,19.10
2015,07,09,00,08,19.10
2015,07,09,00,09,19.10
2015,07,09,00,10,19.10
2015,07,09,00,11,19.10
2015,07,09,00,12,19.10
2015,07,09,00,13,19.00
2015,07,09,00,14,19.00
2015,07,09,00,15,19.00
2015,07,09,00,16,19.00
2015,07,09,00,17,19.00
2015,07,09,00,18,19.00
2015,07,09,00,19,19.00
2015,07,09,00,20,19.00
2015,07,09,00,21,19.00
2015,07,09,00,22,18.90
2015,07,09,00,23,18.90
2015,07,09,00,24,18.90
2015,07,09,00,25,18.90
2015,07,09,00,26,18.90
2015,07,09,00,27,18.90
2015,07,09,00,28,18.80
2015,07,09,00,29,18.80
2015,07,09,00,30,18.80
2015,07,09,00,31,18.80
2015,07,09,00,32,18.80
2015,07,09,00,33,18.80
2015,07,09,00,34,18.70
2015,07,09,00,35,18.70
2015,07,09,00,36,18.70
2015,07,09,00,37,18.70
2015,07,09,00,38,18.70
2015,07,09,00,39,18.70
2015,07,09,00,40,18.70
2015,07,09,00,41,18.70
2015,07,09,00,42,18.70
2015,07,09,00,43,18.70
2015,07,09,00,44,18.70
2015,07,09,00,45,18.70
2015,07,09,00,46,18.70
2015,07,09,00,47,18.70
2015,07,09,00,48,18.70
2015,07,09,00,49,18.70
2015,07,09,00,50,18.70
2015,07,09,00,51,18.70
2015,07,09,00,52,18.70
2015,07,09,00,53,18.70
2015,07,09,00,54,18.70
2015,07,09,00,55,18.70
2015,07,09,00,56,18.70
2015,07,09,00,57,18.70
2015,07,09,00,58,18.70
2015,07,09,00,59,18.60
2015,07,09,01,00,18.60
2015,07,09,01,01,18.60
2015,07,09,01,02,18.60
2015,07,09,01,03,18.60
2015,07,09,01,04,18.60
2015,07,09,01,05,18.60
2015,07,09,01,06,18.60
2015,07,09,01,07,18.60
2015,07,09,01,08,18.60
2015,07,09,01,09,18.50
2015,07,09,01,10,18.50
2015,07,09,01,11,18.50
2015,07,09,01,12,18.50
2015,07,09,01,13,18.40
2015,07,09,01,14,18.40
2015,07,09,01,15,18.40
2015,07,09,01,16,18.40
2015,07,09,01,17,18.40
2015,07,09,01,18,18.40
2015,07,09,01,19,18.30
2015,07,09,01,20,18.30
2015,07,09,01,21,18.30
2015,07,09,01,22,18.30
2015,07,09,01,23,18.30
2015,07,09,01,24,18.30
2015,07,09,01,25,18.20
2015,07,09,01,26,18.20
2015,07,09,01,27,18.20
2015,07,09,01,28,18.20
2015,07,09,01,29,18.20
2015,07,09,01,30,18.10
2015,07,09,01,31,18.10
2015,07,09,01,32,18.10
2015,07,09,01,33,18.10
2015,07,09,01,34,18.10
2015,07,09,01,35,18.10
2015,07,09,01,36,18.00
2015,07,09,01,37,18.00
2015,07,09,01,38,18.00
2015,07,09,01,39,17.90
2015,07,09,01,40,17.90
2015,07,09,01,41,17.90
2015,07,09,01,42,17.90
2015,07,09,01,43,17.80
2015,07,09,01,44,17.80
2015,07,09,01,45,17.80
2015,07,09,01,46,17.80
2015,07,09,01,47,17.70
2015,07,09,01,48,17.70
2015,07,09,01,49,17.70
2015,07,09,01,50,17.70
2015,07,09,01,51,17.60
2015,07,09,01,52,17.60
2015,07,09,01,53,17.60
2015,07,09,01,54,17.60
2015,07,09,01,55,17.50
2015,07,09,01,56,17.50
2015,07,09,01,57,17.50
2015,07,09,01,58,17.40
2015,07,09,01,59,17.40
2015,07,09,02,00,17.40
2015,07,09,02,01,17.40
2015,07,09,02,02,17.30
2015,07,09,02,03,17.30
2015,07,09,02,04,17.30
2015,07,09,02,05,17.30
2015,07,09,02,06,17.30
2015,07,09,02,07,17.30
2015,07,09,02,08,17.30
2015,07,09,02,09,17.30
2015,07,09,02,10,17.30
2015,07,09,02,11,17.20
2015,07,09,02,12,17.20
2015,07,09,02,13,17.20
2015,07,09,02,14,17.20
2015,07,09,02,15,17.20
2015,07,09,02,16,17.20
2015,07,09,02,17,17.20
2015,07,09,02,18,17.10
2015,07,09,02,19,17.10
2015,07,09,02,20,17.10
2015,07,09,02,21,17.10
2015,07,09,02,22,17.00
2015,07,09,02,23,17.00
2015,07,09,02,24,16.90
2015,07,09,02,25,16.90
2015,07,09,02,26,16.90
2015,07,09,02,27,16.90
2015,07,09,02,28,16.80
2015,07,09,02,29,16.80
2015,07,09,02,30,16.80
2015,07,09,02,31,16.80
2015,07,09,02,32,16.80
2015,07,09,02,33,16.70
2015,07,09,02,34,16.70
2015,07,09,02,35,16.70
2015,07,09,02,36,16.70
2015,07,09,02,37,16.70
2015,07,09,02,38,16.70
2015,07,09,02,39,16.60
2015,07,09,02,40,16.60
2015,07,09,02,41,16.60
2015,07,09,02,42,16.60
2015,07,09,02,43,16.60
2015,07,09,02,44,16.50
2015,07,09,02,45,16.50
2015,07,09,02,46,16.50
2015,07,09,02,47,16.40
2015,07,09,02,48,16.40
2015,07,09,02,49,16.40
2015,07,09,02,50,16.40
2015,07,09,02,51,16.40
2015,07,09,02,52,16.40
2015,07,09,02,53,16.40
2015,07,09,02,54,16.30
2015,07,09,02,55,16.30
2015,07,09,02,56,16.30
2015,07,09,02,57,16.30
2015,07,09,02,58,16.30
2015,07,09,02,59,16.30
2015,07,09,03,00,16.20
2015,07,09,03,01,16.20
2015,07,09,03,02,16.20
2015,07,09,03,03,16.20
2015,07,09,03,04,16.20
2015,07,09,03,05,16.20
2015,07,09,03,06,16.20
2015,07,09,03,07,16.20
2015,07,09,03,08,16.20
2015,07,09,03,09,16.20
2015,07,09,03,10,16.20
2015,07,09,03,11,16.20
2015,07,09,03,12,16.20
2015,07,09,03,13,16.20
2015,07,09,03,14,16.20
2015,07,09,03,15,16.20
2015,07,09,03,16,16.20
2015,07,09,03,17,16.20
2015,07,09,03,18,16.20
2015,07,09,03,19,16.20
2015,07,09,03,20,16.20
2015,07,09,03,21,16.20
2015,07,09,03,22,16.20
2015,07,09,03,23,16.20
2015,07,09,03,24,16.20
2015,07,09,03,25,16.20
2015,07,09,03,26,16.20
2015,07,09,03,27,16.20
2015,07,09,03,28,16.20
2015,07,09,03,29,16.20
2015,07,09,03,30,16.20
2015,07,09,03,31,16.20
2015,07,09,03,32,16.20
2015,07,09,03,33,16.20
2015,07,09,03,34,16.20
2015,07,09,03,35,16.20
2015,07,09,03,36,16.20
2015,07,09,03,37,16.20
2015,07,09,03,38,16.20
2015,07,09,03,39,16.20
2015,07,09,03,40,16.20
2015,07,09,03,41,16.20
2015,07,09,03,42,16.20
2015,07,09,03,43,16.20
2015,07,09,03,44,16.20
2015,07,09,03,45,16.20
2015,07,09,03,46,16.20
2015,07,09,03,47,16.20
2015,07,09,03,48,16.20
2015,07,09,03,49,16.10
2015,07,09,03,50,16.10
2015,07,09,03,51,16.10
2015,07,09,03,52,16.10
2015,07,09,03,53,16.00
2015,07,09,03,54,16.00
2015,07,09,03,55,16.00
2015,07,09,03,56,15.90
2015,07,09,03,57,15.90
2015,07,09,03,58,15.90
2015,07,09,03,59,15.80
2015,07,09,04,00,15.80
2015,07,09,04,01,15.80
2015,07,09,04,02,15.80
2015,07,09,04,03,15.70
2015,07,09,04,04,15.70
2015,07,09,04,05,15.70
2015,07,09,04,06,15.70
2015,07,09,04,07,15.60
2015,07,09,04,08,15.60
2015,07,09,04,09,15.60
2015,07,09,04,10,15.60
2015,07,09,04,11,15.50
2015,07,09,04,12,15.50
2015,07,09,04,13,15.50
2015,07,09,04,14,15.40
2015,07,09,04,15,15.40
2015,07,09,04,16,15.40
2015,07,09,04,17,15.40
2015,07,09,04,18,15.40
2015,07,09,04,19,15.40
2015,07,09,04,20,15.40
2015,07,09,04,21,15.30
2015,07,09,04,22,15.30
2015,07,09,04,23,15.30
2015,07,09,04,24,15.30
2015,07,09,04,25,15.30
2015,07,09,04,26,15.30
2015,07,09,04,27,15.30
2015,07,09,04,28,15.20
2015,07,09,04,29,15.20
2015,07,09,04,30,15.20
2015,07,09,04,31,15.20
2015,07,09,04,32,15.20
2015,07,09,04,33,15.10
2015,07,09,04,34,15.10
2015,07,09,04,35,15.10
2015,07,09,04,36,15.10
2015,07,09,04,37,15.10
2015,07,09,04,38,15.10
2015,07,09,04,39,15.10
2015,07,09,04,40,15.10
2015,07,09,04,41,15.10
2015,07,09,04,42,15.10
2015,07,09,04,43,15.10
2015,07,09,04,44,15.10
2015,07,09,04,45,15.10
2015,07,09,04,46,15.00
2015,07,09,04,47,15.00
2015,07,09,04,48,15.00
2015,07,09,04,49,15.00
2015,07,09,04,50,15.00
2015,07,09,04,51,14.90
2015,07,09,04,52,14.90
2015,07,09,04,53,14.90
2015,07,09,04,54,14.90
2015,07,09,04,55,14.80
2015,07,09,04,56,14.80
2015,07,09,04,57,14.80
2015,07,09,04,58,14.80
2015,07,09,04,59,14.80
2015,07,09,05,00,14.80
2015,07,09,05,01,14.80
2015,07,09,05,02,14.80
2015,07,09,05,03,14.80
2015,07,09,05,04,14.80
2015,07,09,05,05,14.80
2015,07,09,05,06,14.70
2015,07,09,05,07,14.70
2015,07,09,05,08,14.70
2015,07,09,05,09,14.70
2015,07,09,05,10,14.70
2015,07,09,05,11,14.70
2015,07,09,05,12,14.60
2015,07,09,05,13,14.60
2015,07,09,05,14,14.60
2015,07,09,05,15,14.60
2015,07,09,05,16,14.60
2015,07,09,05,17,14.50
2015,07,09,05,18,14.50
2015,07,09,05,19,14.50
2015,07,09,05,20,14.50
2015,07,09,05,21,14.50
2015,07,09,05,22,14.50
2015,07,09,05,23,14.50
2015,07,09,05,24,14.40
2015,07,09,05,25,14.40
2015,07,09,05,26,14.40
2015,07,09,05,27,14.40
2015,07,09,05,28,14.40
2015,07,09,05,29,14.40
2015,07,09,05,30,14.40
2015,07,09,05,31,14.40
2015,07,09,05,32,14.30
2015,07,09,05,33,14.30
2015,07,09,05,34,14.30
2015,07,09,05,35,14.30
2015,07,09,05,36,14.30
2015,07,09,05,37,14.30
2015,07,09,05,38,14.30
2015,07,09,05,39,14.30
2015,07,09,05,40,14.30
2015,07,09,05,41,14.30
2015,07,09,05,42,14.30
2015,07,09,05,43,14.30
2015,07,09,05,44,14.30
2015,07,09,05,45,14.30
2015,07,09,05,46,14.30
2015,07,09,05,47,14.30
2015,07,09,05,48,14.30
2015,07,09,05,49,14.30
2015,07,09,05,50,14.30
2015,07,09,05,51,14.30
2015,07,09,05,52,14.30
2015,07,09,05,53,14.30
2015,07,09,05,54,14.30
2015,07,09,05,55,14.30
2015,07,09,05,56,14.30
2015,07,09,05,57,14.30
2015,07,09,05,58,14.30
2015,07,09,05,59,14.30
2015,07,09,06,00,14.30
2015,07,09,06,01,14.40
2015,07,09,06,02,14.40
2015,07,09,06,03,14.40
2015,07,09,06,04,14.40
2015,07,09,06,05,14.40
2015,07,09,06,06,14.40
2015,07,09,06,07,14.40
2015,07,09,06,08,14.40
2015,07,09,06,09,14.40
2015,07,09,06,10,14.40
2015,07,09,06,11,14.40
2015,07,09,06,12,14.50
2015,07,09,06,13,14.50
2015,07,09,06,14,14.50
2015,07,09,06,15,14.50
2015,07,09,06,16,14.60
2015,07,09,06,17,14.60
2015,07,09,06,18,14.60
2015,07,09,06,19,14.60
2015,07,09,06,20,14.60
2015,07,09,06,21,14.60
2015,07,09,06,22,14.70
2015,07,09,06,23,14.70
2015,07,09,06,24,14.70
2015,07,09,06,25,14.70
2015,07,09,06,26,14.70
2015,07,09,06,27,14.70
2015,07,09,06,28,14.70
2015,07,09,06,29,14.80
2015,07,09,06,30,14.80
2015,07,09,06,31,14.80
2015,07,09,06,32,14.80
2015,07,09,06,33,14.90
2015,07,09,06,34,14.90
2015,07,09,06,35,14.90
2015,07,09,06,36,14.90
2015,07,09,06,37,14.90
2015,07,09,06,38,15.00
2015,07,09,06,39,15.00
2015,07,09,06,40,15.10
2015,07,09,06,41,15.10
2015,07,09,06,42,15.10
2015,07,09,06,43,15.10
2015,07,09,06,44,15.10
2015,07,09,06,45,15.20
2015,07,09,06,46,15.20
2015,07,09,06,47,15.20
2015,07,09,06,48,15.20
2015,07,09,06,49,15.20
2015,07,09,06,50,15.20
2015,07,09,06,51,15.20
2015,07,09,06,52,15.20
2015,07,09,06,53,15.30
2015,07,09,06,54,15.30
2015,07,09,06,55,15.30
2015,07,09,06,56,15.30
2015,07,09,06,57,15.30
2015,07,09,06,58,15.30
2015,07,09,06,59,15.30
2015,07,09,07,00,15.30
2015,07,09,07,01,15.40
2015,07,09,07,02,15.40
2015,07,09,07,03,15.40
2015,07,09,07,04,15.40
2015,07,09,07,05,15.40
2015,07,09,07,06,15.40
2015,07,09,07,07,15.40
2015,07,09,07,08,15.50
2015,07,09,07,09,15.50
2015,07,09,07,10,15.50
2015,07,09,07,11,15.50
2015,07,09,07,12,15.50
2015,07,09,07,13,15.60
2015,07,09,07,14,15.60
2015,07,09,07,15,15.60
2015,07,09,07,16,15.70
2015,07,09,07,17,15.70
2015,07,09,07,18,15.70
2015,07,09,07,19,15.70
2015,07,09,07,20,15.80
2015,07,09,07,21,15.80
2015,07,09,07,22,15.80
2015,07,09,07,23,15.80
2015,07,09,07,24,15.90
2015,07,09,07,25,15.90
2015,07,09,07,26,15.90
2015,07,09,07,27,16.00
2015,07,09,07,28,16.00
2015,07,09,07,29,16.00
2015,07,09,07,30,16.10
2015,07,09,07,31,16.10
2015,07,09,07,32,16.10
2015,07,09,07,33,16.10
2015,07,09,07,34,16.20
2015,07,09,07,35,16.20
2015,07,09,07,36,16.20
2015,07,09,07,37,16.30
2015,07,09,07,38,16.30
2015,07,09,07,39,16.30
2015,07,09,07,40,16.30
2015,07,09,07,41,16.40
2015,07,09,07,42,16.40
2015,07,09,07,43,16.40
2015,07,09,07,44,16.40
2015,07,09,07,45,16.50
2015,07,09,07,46,16.50
2015,07,09,07,47,16.60
2015,07,09,07,48,16.60
2015,07,09,07,49,16.60
2015,07,09,07,50,16.60
2015,07,09,07,51,16.70
2015,07,09,07,52,16.70
2015,07,09,07,53,16.70
2015,07,09,07,54,16.80
2015,07,09,07,55,16.80
2015,07,09,07,56,16.80
2015,07,09,07,57,16.90
2015,07,09,07,58,16.90
2015,07,09,07,59,17.00
2015,07,09,08,00,17.00
2015,07,09,08,01,17.10
2015,07,09,08,02,17.10
2015,07,09,08,03,17.20
2015,07,09,08,04,17.20
2015,07,09,08,05,17.20
2015,07,09,08,06,17.30
2015,07,09,08,07,17.30
2015,07,09,08,08,17.30
2015,07,09,08,09,17.30
2015,07,09,08,10,17.40
2015,07,09,08,11,17.40
2015,07,09,08,12,17.40
2015,07,09,08,13,17.50
2015,07,09,08,14,17.50
2015,07,09,08,15,17.60
2015,07,09,08,16,17.60
2015,07,09,08,17,17.60
2015,07,09,08,18,17.60
2015,07,09,08,19,17.70
2015,07,09,08,20,17.70
2015,07,09,08,21,17.70
2015,07,09,08,22,17.70
2015,07,09,08,23,17.70
2015,07,09,08,24,17.80
2015,07,09,08,25,17.80
2015,07,09,08,26,17.80
2015,07,09,08,27,17.80
2015,07,09,08,28,17.80
2015,07,09,08,29,17.80
2015,07,09,08,30,17.90
2015,07,09,08,31,17.90
2015,07,09,08,32,17.90
2015,07,09,08,33,18.00
2015,07,09,08,34,18.00
2015,07,09,08,35,18.00
2015,07,09,08,36,18.10
2015,07,09,08,37,18.10
2015,07,09,08,38,18.20
2015,07,09,08,39,18.20
2015,07,09,08,40,18.30
2015,07,09,08,41,18.30
2015,07,09,08,42,18.40
2015,07,09,08,43,18.40
2015,07,09,08,44,18.50
2015,07,09,08,45,18.60
2015,07,09,08,46,18.60
2015,07,09,08,47,18.70
2015,07,09,08,48,18.80
2015,07,09,08,49,18.80
2015,07,09,08,50,18.90
2015,07,09,08,51,18.90
2015,07,09,08,52,18.90
2015,07,09,08,53,19.00
2015,07,09,08,54,19.10
2015,07,09,08,55,19.10
2015,07,09,08,56,19.20
2015,07,09,08,57,19.30
2015,07,09,08,58,19.30
2015,07,09,08,59,19.40
2015,07,09,09,00,19.40
2015,07,09,09,01,19.50
2015,07,09,09,02,19.60
2015,07,09,09,03,19.60
2015,07,09,09,04,19.70
2015,07,09,09,05,19.80
2015,07,09,09,06,19.90
2015,07,09,09,07,19.90
2015,07,09,09,08,20.00
2015,07,09,09,09,20.10
2015,07,09,09,10,20.10
2015,07,09,09,11,20.10
2015,07,09,09,12,20.20
2015,07,09,09,13,20.20
2015,07,09,09,14,20.30
2015,07,09,09,15,20.30
2015,07,09,09,16,20.30
2015,07,09,09,17,20.30
2015,07,09,09,18,20.30
2015,07,09,09,19,20.40
2015,07,09,09,20,20.40
2015,07,09,09,21,20.50
2015,07,09,09,22,20.60
2015,07,09,09,23,20.60
2015,07,09,09,24,20.50
2015,07,09,09,25,20.50
2015,07,09,09,26,20.50
2015,07,09,09,27,20.60
2015,07,09,09,28,20.60
2015,07,09,09,29,20.60
2015,07,09,09,30,20.70
2015,07,09,09,31,20.70
2015,07,09,09,32,20.70
2015,07,09,09,33,20.60
2015,07,09,09,34,20.60
2015,07,09,09,35,20.50
2015,07,09,09,36,20.50
2015,07,09,09,37,20.50
2015,07,09,09,38,20.40
2015,07,09,09,39,20.30
2015,07,09,09,40,20.30
2015,07,09,09,41,20.30
2015,07,09,09,42,20.20
2015,07,09,09,43,20.20
2015,07,09,09,44,20.20
2015,07,09,09,45,20.20
2015,07,09,09,46,20.20
2015,07,09,09,47,20.20
2015,07,09,09,48,20.20
2015,07,09,09,49,20.20
2015,07,09,09,50,20.20
2015,07,09,09,51,20.20
2015,07,09,09,52,20.20
2015,07,09,09,53,20.20
2015,07,09,09,54,20.20
2015,07,09,09,55,20.20
2015,07,09,09,56,20.20
2015,07,09,09,57,20.20
2015,07,09,09,58,20.30
2015,07,09,09,59,20.40
2015,07,09,10,00,20.50
2015,07,09,10,01,20.60
2015,07,09,10,02,20.70
2015,07,09,10,03,20.80
2015,07,09,10,04,20.80
2015,07,09,10,05,20.90
2015,07,09,10,06,21.00
2015,07,09,10,07,21.10
2015,07,09,10,08,21.10
2015,07,09,10,09,21.20
2015,07,09,10,10,21.20
2015,07,09,10,11,21.30
2015,07,09,10,12,21.40
2015,07,09,10,13,21.40
2015,07,09,10,14,21.50
2015,07,09,10,15,21.50
2015,07,09,10,16,21.60
2015,07,09,10,17,21.60
2015,07,09,10,18,21.70
2015,07,09,10,19,21.70
2015,07,09,10,20,21.80
2015,07,09,10,21,21.80
2015,07,09,10,22,21.80
2015,07,09,10,23,21.90
2015,07,09,10,24,21.90
2015,07,09,10,25,21.90
2015,07,09,10,26,21.90
2015,07,09,10,27,21.90
2015,07,09,10,28,22.00
2015,07,09,10,29,22.00
2015,07,09,10,30,22.00
2015,07,09,10,31,22.00
2015,07,09,10,32,22.10
2015,07,09,10,33,22.20
2015,07,09,10,34,22.20
2015,07,09,10,35,22.20
2015,07,09,10,36,22.30
2015,07,09,10,37,22.30
2015,07,09,10,38,22.30
2015,07,09,10,39,22.30
2015,07,09,10,40,22.40
2015,07,09,10,41,22.40
2015,07,09,10,42,22.50
2015,07,09,10,43,22.50
2015,07,09,10,44,22.40
2015,07,09,10,45,22.30
2015,07,09,10,46,22.30
2015,07,09,10,47,22.30
2015,07,09,10,48,22.30
2015,07,09,10,49,22.30
2015,07,09,10,50,22.30
2015,07,09,10,51,22.30
2015,07,09,10,52,22.40
2015,07,09,10,53,22.40
2015,07,09,10,54,22.50
2015,07,09,10,55,22.60
2015,07,09,10,56,22.60
2015,07,09,10,57,22.60
2015,07,09,10,58,22.60
2015,07,09,10,59,22.60
2015,07,09,11,00,22.60
2015,07,09,11,01,22.60
2015,07,09,11,02,22.60
2015,07,09,11,03,22.60
2015,07,09,11,04,22.60
2015,07,09,11,05,22.60
2015,07,09,11,06,22.70
2015,07,09,11,07,22.70
2015,07,09,11,08,22.70
2015,07,09,11,09,22.70
2015,07,09,11,10,22.70
2015,07,09,11,11,22.60
2015,07,09,11,12,22.60
2015,07,09,11,13,22.50
2015,07,09,11,14,22.50
2015,07,09,11,15,22.40
2015,07,09,11,16,22.40
2015,07,09,11,17,22.40
2015,07,09,11,18,22.40
2015,07,09,11,19,22.40
2015,07,09,11,20,22.40
2015,07,09,11,21,22.50
2015,07,09,11,22,22.50
2015,07,09,11,23,22.50
2015,07,09,11,24,22.50
2015,07,09,11,25,22.50
2015,07,09,11,26,22.50
2015,07,09,11,27,22.40
2015,07,09,11,28,22.40
2015,07,09,11,29,22.40
2015,07,09,11,30,22.30
2015,07,09,11,31,22.30
2015,07,09,11,32,22.30
2015,07,09,11,33,22.30
2015,07,09,11,34,22.30
2015,07,09,11,35,22.30
2015,07,09,11,36,22.20
2015,07,09,11,37,22.20
2015,07,09,11,38,22.20
2015,07,09,11,39,22.20
2015,07,09,11,40,22.20
2015,07,09,11,41,22.30
2015,07,09,11,42,22.30
2015,07,09,11,43,22.30
2015,07,09,11,44,22.30
2015,07,09,11,45,22.30
2015,07,09,11,46,22.30
2015,07,09,11,47,22.40
2015,07,09,11,48,22.40
2015,07,09,11,49,22.50
2015,07,09,11,50,22.60
2015,07,09,11,51,22.70
2015,07,09,11,52,22.80
2015,07,09,11,53,22.90
2015,07,09,11,54,23.00
2015,07,09,11,55,23.10
2015,07,09,11,56,23.20
2015,07,09,11,57,23.30
2015,07,09,11,58,23.30
2015,07,09,11,59,23.40
2015,07,09,12,00,23.50
2015,07,09,12,01,23.50
2015,07,09,12,02,23.60
2015,07,09,12,03,23.60
2015,07,09,12,04,23.70
2015,07,09,12,05,23.70
2015,07,09,12,06,23.80
2015,07,09,12,07,24.00
2015,07,09,12,08,24.10
2015,07,09,12,09,24.20
2015,07,09,12,10,24.40
2015,07,09,12,11,24.50
2015,07,09,12,12,24.60
2015,07,09,12,13,24.60
2015,07,09,12,14,24.60
2015,07,09,12,15,24.60
2015,07,09,12,16,24.60
2015,07,09,12,17,24.60
2015,07,09,12,18,24.70
2015,07,09,12,19,24.80
2015,07,09,12,20,24.90
2015,07,09,12,21,24.90
2015,07,09,12,22,25.00
2015,07,09,12,23,25.10
2015,07,09,12,24,25.10
2015,07,09,12,25,25.20
2015,07,09,12,26,25.30
2015,07,09,12,27,25.30
2015,07,09,12,28,25.40
2015,07,09,12,29,25.40
2015,07,09,12,30,25.50
2015,07,09,12,31,25.50
2015,07,09,12,32,25.60
2015,07,09,12,33,25.70
2015,07,09,12,34,25.80
2015,07,09,12,35,25.80
2015,07,09,12,36,25.80
2015,07,09,12,37,25.90
2015,07,09,12,38,25.90
2015,07,09,12,39,25.90
2015,07,09,12,40,25.90
2015,07,09,12,41,26.00
2015,07,09,12,42,26.00
2015,07,09,12,43,26.10
2015,07,09,12,44,26.10
2015,07,09,12,45,26.10
2015,07,09,12,46,26.20
2015,07,09,12,47,26.20
2015,07,09,12,48,26.20
2015,07,09,12,49,26.20
2015,07,09,12,50,26.20
2015,07,09,12,51,26.30
2015,07,09,12,52,26.30
2015,07,09,12,53,26.40
2015,07,09,12,54,26.40
2015,07,09,12,55,26.50
2015,07,09,12,56,26.50
2015,07,09,12,57,26.60
2015,07,09,12,58,26.60
2015,07,09,12,59,26.60
2015,07,09,13,00,26.60
2015,07,09,13,01,26.60
2015,07,09,13,02,26.60
2015,07,09,13,03,26.70
2015,07,09,13,04,26.70
2015,07,09,13,05,26.70
2015,07,09,13,06,26.70
2015,07,09,13,07,26.80
2015,07,09,13,08,26.90
2015,07,09,13,09,27.00
2015,07,09,13,10,27.20
2015,07,09,13,11,27.30
2015,07,09,13,12,27.40
2015,07,09,13,13,27.60
2015,07,09,13,14,27.70
2015,07,09,13,15,27.70
2015,07,09,13,16,27.80
2015,07,09,13,17,27.80
2015,07,09,13,18,27.70
2015,07,09,13,19,27.70
2015,07,09,13,20,27.60
2015,07,09,13,21,27.50
2015,07,09,13,22,27.50
2015,07,09,13,23,27.40
2015,07,09,13,24,27.50
2015,07,09,13,25,27.50
2015,07,09,13,26,27.60
2015,07,09,13,27,27.70
2015,07,09,13,28,27.70
2015,07,09,13,29,27.80
2015,07,09,13,30,27.90
2015,07,09,13,31,28.00
2015,07,09,13,32,28.10
2015,07,09,13,33,28.20
2015,07,09,13,34,28.30
2015,07,09,13,35,28.30
2015,07,09,13,36,28.30
2015,07,09,13,37,28.40
2015,07,09,13,38,28.40
2015,07,09,13,39,28.40
2015,07,09,13,40,28.40
2015,07,09,13,41,28.40
2015,07,09,13,42,28.40
2015,07,09,13,43,28.50
2015,07,09,13,44,28.60
2015,07,09,13,45,28.60
2015,07,09,13,46,28.60
2015,07,09,13,47,28.70
2015,07,09,13,48,28.70
2015,07,09,13,49,28.80
2015,07,09,13,50,28.80
2015,07,09,13,51,28.80
2015,07,09,13,52,28.80
2015,07,09,13,53,28.70
2015,07,09,13,54,28.70
2015,07,09,13,55,28.60
2015,07,09,13,56,28.70
2015,07,09,13,57,28.70
2015,07,09,13,58,28.80
2015,07,09,13,59,28.80
2015,07,09,14,00,28.90
2015,07,09,14,01,28.90
2015,07,09,14,02,28.90
2015,07,09,14,03,28.90
2015,07,09,14,04,28.90
2015,07,09,14,05,28.90
2015,07,09,14,06,29.00
2015,07,09,14,07,29.00
2015,07,09,14,08,29.00
2015,07,09,14,09,29.00
2015,07,09,14,10,29.00
2015,07,09,14,11,28.90
2015,07,09,14,12,28.80
2015,07,09,14,13,28.80
2015,07,09,14,14,28.70
2015,07,09,14,15,28.70
2015,07,09,14,16,28.70
2015,07,09,14,17,28.70
2015,07,09,14,18,28.70
2015,07,09,14,19,28.70
2015,07,09,14,20,28.70
2015,07,09,14,21,28.70
2015,07,09,14,22,28.70
2015,07,09,14,23,28.70
2015,07,09,14,24,28.70
2015,07,09,14,25,28.70
2015,07,09,14,26,28.70
2015,07,09,14,27,28.70
2015,07,09,14,28,28.70
2015,07,09,14,29,28.70
2015,07,09,14,30,28.70
2015,07,09,14,31,28.60
2015,07,09,14,32,28.60
2015,07,09,14,33,28.70
2015,07,09,14,34,28.70
2015,07,09,14,35,28.70
2015,07,09,14,36,28.80
2015,07,09,14,37,28.80
2015,07,09,14,38,28.90
2015,07,09,14,39,28.90
2015,07,09,14,40,28.90
2015,07,09,14,41,28.90
2015,07,09,14,42,28.90
2015,07,09,14,43,28.90
2015,07,09,14,44,28.90
2015,07,09,14,45,29.00
2015,07,09,14,46,29.10
2015,07,09,14,47,29.20
2015,07,09,14,48,29.30
2015,07,09,14,49,29.30
2015,07,09,14,50,29.40
2015,07,09,14,51,29.40
2015,07,09,14,52,29.40
2015,07,09,14,53,29.50
2015,07,09,14,54,29.60
2015,07,09,14,55,29.60
2015,07,09,14,56,29.60
2015,07,09,14,57,29.60
2015,07,09,14,58,29.60
2015,07,09,14,59,29.60
2015,07,09,15,00,29.60
2015,07,09,15,01,29.70
2015,07,09,15,02,29.70
2015,07,09,15,03,29.70
2015,07,09,15,04,29.70
2015,07,09,15,05,29.70
2015,07,09,15,06,29.60
2015,07,09,15,07,29.50
2015,07,09,15,08,29.50
2015,07,09,15,09,29.50
2015,07,09,15,10,29.40
2015,07,09,15,11,29.40
2015,07,09,15,12,29.40
2015,07,09,15,13,29.50
2015,07,09,15,14,29.50
2015,07,09,15,15,29.60
2015,07,09,15,16,29.50
2015,07,09,15,17,29.40
2015,07,09,15,18,29.40
2015,07,09,15,19,29.40
2015,07,09,15,20,29.50
2015,07,09,15,21,29.50
2015,07,09,15,22,29.60
2015,07,09,15,23,29.60
2015,07,09,15,24,29.60
2015,07,09,15,25,29.60
2015,07,09,15,26,29.60
2015,07,09,15,27,29.60
2015,07,09,15,28,29.60
2015,07,09,15,29,29.60
2015,07,09,15,30,29.50
2015,07,09,15,31,29.50
2015,07,09,15,32,29.40
2015,07,09,15,33,29.40
2015,07,09,15,34,29.50
2015,07,09,15,35,29.50
2015,07,09,15,36,29.60
2015,07,09,15,37,29.70
2015,07,09,15,38,29.70
2015,07,09,15,39,29.80
2015,07,09,15,40,29.90
2015,07,09,15,41,29.90
2015,07,09,15,42,29.90
2015,07,09,15,43,29.90
2015,07,09,15,44,29.90
2015,07,09,15,45,29.90
2015,07,09,15,46,29.80
2015,07,09,15,47,29.90
2015,07,09,15,48,29.90
2015,07,09,15,49,29.90
2015,07,09,15,50,29.90
2015,07,09,15,51,29.90
2015,07,09,15,52,29.90
2015,07,09,15,53,29.90
2015,07,09,15,54,29.90
2015,07,09,15,55,29.80
2015,07,09,15,56,29.80
2015,07,09,15,57,29.80
2015,07,09,15,58,29.80
2015,07,09,15,59,29.80
2015,07,09,16,00,29.80
2015,07,09,16,01,29.90
2015,07,09,16,02,29.90
2015,07,09,16,03,29.80
2015,07,09,16,04,29.80
2015,07,09,16,05,29.80
2015,07,09,16,06,29.80
2015,07,09,16,07,29.80
2015,07,09,16,08,29.80
2015,07,09,16,09,29.90
2015,07,09,16,10,29.90
2015,07,09,16,11,30.00
2015,07,09,16,12,30.00
2015,07,09,16,13,30.10
2015,07,09,16,14,30.20
2015,07,09,16,15,30.30
2015,07,09,16,16,30.30
2015,07,09,16,17,30.30
2015,07,09,16,18,30.30
2015,07,09,16,19,30.30
2015,07,09,16,20,30.30
2015,07,09,16,21,30.30
2015,07,09,16,22,30.20
2015,07,09,16,23,30.10
2015,07,09,16,24,30.00
2015,07,09,16,25,29.90
2015,07,09,16,26,29.90
2015,07,09,16,27,29.80
2015,07,09,16,28,29.70
2015,07,09,16,29,29.70
2015,07,09,16,30,29.60
2015,07,09,16,31,29.50
2015,07,09,16,32,29.40
2015,07,09,16,33,29.30
2015,07,09,16,34,29.20
2015,07,09,16,35,29.20
2015,07,09,16,36,29.10
2015,07,09,16,37,29.00
2015,07,09,16,38,29.00
2015,07,09,16,39,28.90
2015,07,09,16,40,28.90
2015,07,09,16,41,28.90
2015,07,09,16,42,28.90
2015,07,09,16,43,28.80
2015,07,09,16,44,28.80
2015,07,09,16,45,28.80
2015,07,09,16,46,28.70
2015,07,09,16,47,28.70
2015,07,09,16,48,28.60
2015,07,09,16,49,28.50
2015,07,09,16,50,28.40
2015,07,09,16,51,28.40
2015,07,09,16,52,28.30
2015,07,09,16,53,28.30
2015,07,09,16,54,28.20
2015,07,09,16,55,28.10
2015,07,09,16,56,28.00
2015,07,09,16,57,28.00
2015,07,09,16,58,27.90
2015,07,09,16,59,27.80
2015,07,09,17,00,27.70
2015,07,09,17,01,27.70
2015,07,09,17,02,27.60
2015,07,09,17,03,27.60
2015,07,09,17,04,27.60
2015,07,09,17,05,27.50
2015,07,09,17,06,27.50
2015,07,09,17,07,27.50
2015,07,09,17,08,27.50
2015,07,09,17,09,27.50
2015,07,09,17,10,27.50
2015,07,09,17,11,27.50
2015,07,09,17,12,27.50
2015,07,09,17,13,27.60
2015,07,09,17,14,27.50
2015,07,09,17,15,27.50
2015,07,09,17,16,27.50
2015,07,09,17,17,27.50
2015,07,09,17,18,27.50
2015,07,09,17,19,27.50